Location: Erdweis
(48.5167°N, 15.3500°E)
Time: 06:49:08
(UTC+00:00)

SJ-6B - Pass Details

Date: 18 September 2020
Orbit: 511 x 580 km, 97.6° (Epoch: 23 October)

Event Time Altitude Azimuth Distance (km) Brightness Sun altitude
Exits shadow 17:45:38 - 120° (ESE) 1,851 4.9 -7.6°
Reaches altitude 10° 17:45:59 10° 117° (ESE) 1,734 4.7 -7.7°
Maximum altitude 17:48:55 22° 65° (ENE) 1,150 4.0 -8.2°
Drops below altitude 10° 17:51:53 10° 13° (NNE) 1,755 5.4 -8.6°
Sets 17:54:18 0° 359° (N) 2,655 6.5 -9.0°
